Weather History for Burlington, WI

Change the Weather History Date:

Sunday, November 25, 2012

  Actual Average (KENW) Record (KENW)
Temperature  
Mean Temperature 28 °F -  
Max Temperature 37 °F 43 °F 60 °F (1966)
Min Temperature 19 °F 28 °F 0 °F (1950)
Degree Days  
Heating Degree Days 37    
Moisture  
Dew Point 22 °F    
Average Humidity 74    
Maximum Humidity 100    
Minimum Humidity 52    
Precipitation  
Precipitation 0.00 in - - ()
Sea Level Pressure  
Sea Level Pressure 29.90 in    
Wind  
Wind Speed 7 mph (West)    
Max Wind Speed 13 mph    
Max Gust Speed 17 mph    
Visibility 10 miles    
Events      
Averages and records for this station are not official NWS values.
T = Trace of Precipitation, MM = Missing Value Source: NWS Daily Summary

Daily Weather History Graph

Daily Weather History Graph

Search for Another Location

Airport:

Trip Planner

Search our weather history database for the weather conditions in past years. The results will help you decide how hot, cold, wet, or windy it might be!

Date:

Astronomy

Nov. 25, 2012 Rise Set
Actual Time 6:57 AM CST 4:22 PM CST
Civil Twilight 6:26 AM CST 4:54 PM CST
Nautical Twilight 5:51 AM CST 5:28 PM CST
Astronomical Twilight 5:17 AM CST 6:02 PM CST
Moon 2:41 PM CST (11/25) 4:08 AM CST (11/25)
Length of Visible Light 10h 27m
Length of Day
9h 25m
Waxing Gibbous, 93% of the Moon is Illuminated
Nov 25
Waxing Gibbous
Nov 28
Full
Dec 6
Last Quarter
Dec 13
New
Dec 19
First Quarter

Hourly Weather History & Observations

Time (CST) Temp. Windchill Dew Point Humidity Pressure Visibility Wind Dir Wind Speed Gust Speed Precip Events Conditions
12:15 AM 28.4 °F 18.0 °F 21.2 °F 74% 29.92 in 10.0 mi SSW 12.7 mph - N/A   Overcast
12:35 AM 28.4 °F 19.1 °F 21.2 °F 74% 29.91 in 10.0 mi SSW 10.4 mph - N/A   Scattered Clouds
12:55 AM 28.4 °F 19.1 °F 21.2 °F 74% 29.88 in 10.0 mi South 10.4 mph - N/A   Clear
1:15 AM 28.4 °F 18.0 °F 21.2 °F 74% 29.87 in 10.0 mi SSW 12.7 mph - N/A   Scattered Clouds
1:35 AM 28.4 °F 19.7 °F 21.2 °F 74% 29.87 in 10.0 mi SSW 9.2 mph - N/A   Mostly Cloudy
1:55 AM 28.4 °F 19.1 °F 21.2 °F 74% 29.86 in 10.0 mi SSW 10.4 mph - N/A   Overcast
2:15 AM 28.4 °F 20.4 °F 21.2 °F 74% 29.85 in 10.0 mi SSW 8.1 mph - N/A   Scattered Clouds
2:35 AM 28.4 °F 19.1 °F 21.2 °F 74% 29.84 in 10.0 mi SSW 10.4 mph - N/A   Clear
2:55 AM 28.4 °F 19.7 °F 21.2 °F 74% 29.84 in 10.0 mi SSW 9.2 mph - N/A   Mostly Cloudy
3:15 AM 28.4 °F 21.2 °F 23.0 °F 80% 29.84 in 10.0 mi SSW 6.9 mph - N/A   Overcast
3:35 AM 28.4 °F 22.2 °F 21.2 °F 74% 29.83 in 10.0 mi SSW 5.8 mph - N/A   Scattered Clouds
3:55 AM 28.4 °F 23.3 °F 21.2 °F 74% 29.83 in 10.0 mi SW 4.6 mph - N/A   Clear
4:15 AM 26.6 °F 21.2 °F 21.2 °F 80% 29.83 in 10.0 mi SW 4.6 mph - N/A   Clear
4:35 AM 26.6 °F 21.2 °F 21.2 °F 80% 29.82 in 10.0 mi SSW 4.6 mph - N/A   Clear
4:55 AM 24.8 °F - 21.2 °F 86% 29.83 in 10.0 mi Calm Calm - N/A   Clear
5:35 AM 23.0 °F - 19.4 °F 86% 29.83 in 10.0 mi Calm Calm - N/A   Clear
5:55 AM 21.2 °F - 19.4 °F 93% 29.83 in 10.0 mi Calm Calm - N/A   Clear
6:15 AM 21.2 °F - 19.4 °F 93% 29.83 in 10.0 mi Calm Calm - N/A   Clear
6:35 AM 21.2 °F - 19.4 °F 93% 29.83 in 10.0 mi Calm Calm - N/A   Clear
6:55 AM 21.2 °F - 19.4 °F 93% 29.83 in 10.0 mi Calm Calm - N/A   Clear
7:15 AM 19.4 °F - 19.4 °F 100% 29.84 in 10.0 mi Calm Calm - N/A   Clear
7:35 AM 21.2 °F - 19.4 °F 93% 29.83 in 10.0 mi Calm Calm - N/A   Clear
7:55 AM 23.0 °F - 21.2 °F 93% 29.84 in 10.0 mi Calm Calm - N/A   Clear
8:15 AM 26.6 °F - 23.0 °F 86% 29.85 in 10.0 mi Calm Calm - N/A   Clear
8:35 AM 30.2 °F - 23.0 °F 75% 29.85 in 10.0 mi Calm Calm - N/A   Clear
8:55 AM 32.0 °F 25.6 °F 23.0 °F 69% 29.85 in 10.0 mi WNW 6.9 mph - N/A   Clear
9:15 AM 32.0 °F 23.6 °F 23.0 °F 69% 29.86 in 10.0 mi WNW 10.4 mph - N/A   Clear
9:35 AM 32.0 °F 23.6 °F 23.0 °F 69% 29.86 in 10.0 mi NW 10.4 mph - N/A   Clear
9:55 AM 33.8 °F 25.3 °F 23.0 °F 65% 29.86 in 10.0 mi NW 11.5 mph - N/A   Clear
10:15 AM 33.8 °F 26.4 °F 23.0 °F 65% 29.86 in 10.0 mi NW 9.2 mph - N/A   Clear
10:35 AM 33.8 °F 25.8 °F 23.0 °F 65% 29.85 in 10.0 mi WNW 10.4 mph - N/A   Clear
10:55 AM 35.6 °F 29.9 °F 23.0 °F 60% 29.85 in 10.0 mi WNW 6.9 mph - N/A   Clear
11:15 AM 35.6 °F 29.2 °F 23.0 °F 60% 29.85 in 10.0 mi NW 8.1 mph - N/A   Clear
11:35 AM 35.6 °F 29.9 °F 23.0 °F 60% 29.85 in 10.0 mi West 6.9 mph - N/A   Clear
11:55 AM 37.4 °F 30.3 °F 23.0 °F 56% 29.86 in 10.0 mi NW 10.4 mph - N/A   Clear
12:15 PM 37.4 °F 32.1 °F 23.0 °F 56% 29.86 in 10.0 mi West 6.9 mph - N/A   Clear
12:35 PM 37.4 °F 30.3 °F 23.0 °F 56% 29.86 in 10.0 mi WNW 10.4 mph 17.3 mph N/A   Clear
12:55 PM 37.4 °F 30.8 °F 23.0 °F 56% 29.86 in 10.0 mi WNW 9.2 mph - N/A   Clear
1:15 PM 37.4 °F 29.8 °F 21.2 °F 52% 29.86 in 10.0 mi West 11.5 mph - N/A   Clear
1:35 PM 37.4 °F 30.8 °F 23.0 °F 56% 29.86 in 10.0 mi West 9.2 mph - N/A   Clear
1:55 PM 37.4 °F 30.3 °F 23.0 °F 56% 29.87 in 10.0 mi West 10.4 mph - N/A   Clear
2:15 PM 37.4 °F 30.3 °F 23.0 °F 56% 29.87 in 10.0 mi West 10.4 mph - N/A   Clear
2:35 PM 37.4 °F 32.1 °F 23.0 °F 56% 29.87 in 10.0 mi West 6.9 mph - N/A   Clear
2:55 PM 35.6 °F 28.0 °F 23.0 °F 60% 29.88 in 10.0 mi NW 10.4 mph - N/A   Clear
3:15 PM 35.6 °F 28.0 °F 23.0 °F 60% 29.90 in 10.0 mi WNW 10.4 mph - N/A   Clear
3:35 PM 35.6 °F 28.6 °F 23.0 °F 60% 29.90 in 10.0 mi WNW 9.2 mph - N/A   Clear
3:55 PM 33.8 °F 28.6 °F 23.0 °F 65% 29.91 in 10.0 mi NW 5.8 mph - N/A   Clear
4:15 PM 32.0 °F - 21.2 °F 64% 29.91 in 10.0 mi Calm Calm - N/A   Clear
4:35 PM 32.0 °F - 21.2 °F 64% 29.93 in 10.0 mi Calm Calm - N/A   Clear
4:55 PM 30.2 °F - 21.2 °F 69% 29.92 in 10.0 mi Calm Calm - N/A   Clear
5:15 PM 28.4 °F - 21.2 °F 74% 29.93 in 10.0 mi Calm Calm - N/A   Clear
5:35 PM 28.4 °F - 21.2 °F 74% 29.93 in 10.0 mi Calm Calm - N/A   Clear
5:55 PM 26.6 °F - 19.4 °F 74% 29.94 in 10.0 mi Calm Calm - N/A   Clear
6:15 PM 28.4 °F - 21.2 °F 74% 29.95 in 10.0 mi Calm Calm - N/A   Clear
6:35 PM 26.6 °F - 21.2 °F 80% 29.96 in 10.0 mi Calm Calm - N/A   Clear
6:55 PM 26.6 °F - 21.2 °F 80% 29.97 in 10.0 mi Calm Calm - N/A   Clear
7:15 PM 24.8 °F 20.5 °F 21.2 °F 86% 29.98 in 10.0 mi SW 3.5 mph - N/A   Clear
7:35 PM 26.6 °F 22.6 °F 21.2 °F 80% 29.98 in 10.0 mi SSW 3.5 mph - N/A   Clear
7:55 PM 26.6 °F 22.6 °F 23.0 °F 86% 29.98 in 10.0 mi SW 3.5 mph - N/A   Clear
8:15 PM 28.4 °F - 23.0 °F 80% 29.99 in 10.0 mi Calm Calm - N/A   Clear
8:35 PM 26.6 °F - 23.0 °F 86% 30.00 in 10.0 mi Calm Calm - N/A   Clear
8:55 PM 26.6 °F 22.6 °F 23.0 °F 86% 30.01 in 10.0 mi SSW 3.5 mph - N/A   Clear
9:15 PM 28.4 °F 23.3 °F 23.0 °F 80% 30.02 in 10.0 mi SSW 4.6 mph - N/A   Clear
9:35 PM 28.4 °F 24.6 °F 23.0 °F 80% 30.02 in 10.0 mi SW 3.5 mph - N/A   Clear
9:55 PM 28.4 °F 24.6 °F 23.0 °F 80% 30.03 in 10.0 mi WSW 3.5 mph - N/A   Clear
10:15 PM 28.4 °F - 23.0 °F 80% 30.04 in 10.0 mi Calm Calm - N/A   Clear
10:35 PM 26.6 °F 19.1 °F 21.2 °F 80% 30.05 in 10.0 mi NW 6.9 mph - N/A   Clear
10:55 PM 26.6 °F 19.1 °F 21.2 °F 80% 30.06 in 10.0 mi NW 6.9 mph - N/A   Clear
11:15 PM 24.8 °F 19.1 °F 21.2 °F 86% 30.06 in 10.0 mi NW 4.6 mph - N/A   Clear
11:35 PM 23.0 °F 15.8 °F 21.2 °F 93% 30.07 in 10.0 mi NW 5.8 mph - N/A   Clear
11:55 PM 24.8 °F 17.9 °F 21.2 °F 86% 30.08 in 10.0 mi WNW 5.8 mph - N/A   Clear